Location: Monfort
(47.1967°N, 0.2115°W)
Time: 10:57:43
(UTC+00:00)

Cosmos 968 Rocket - Pass Details

Date: 24 October 2020
Orbit: 741 x 770 km, 74.0° (Epoch: 27 November)

Event Time Altitude Azimuth Distance (km) Brightness Sun altitude
Rises 18:16:34 0° 342° (NNW) 3,246 7.0 -14.2°
Reaches altitude 10° 18:19:07 10° 350° (N) 2,312 6.1 -14.6°
Maximum altitude 18:24:03 40° 60° (ENE) 1,106 3.9 -15.5°
Enters shadow 18:26:56 22° 117° (ESE) 1,619 4.7 -16.0°
